Flag Weather past 2 weeks in Rheine, North Rhine-Westphalia, Germany

Now
55 °F

Cool.


Feels Like: 55 °F
Forecast: 53 / 62 °F
Wind: 5 mph from Southeast

Location: Rheine-Bentlage

Current Time: Oct 30, 2014 at 4:57:55 PM

Latest Report: Oct 30, 2014 at 4:20 PM


Visibility: N/A

Pressure: 30.21 "Hg

Humidity: 94%

Dew point: 54 °F

Location of RheineLocation

Historic Weather in Rheine — Graph

°F

Rheine temperature yesterday

Maximum temperature yesterday: 50 °F (at 3:20 PM)
Minimum temperature yesterday: 43 °F (at 12:20 AM)
Average temperature yesterday: 48 °F

Past Weeks' High & Low Weather Summary

 TemperatureHumidityPressure
High73 °F (Oct 19, 2:20 PM)100% (Oct 15, 10:20 PM)30.27 "Hg (Oct 15, 10:20 PM)
Low43 °F (Oct 28, 5:20 AM)61% (Oct 19, 2:20 PM)29.42 "Hg (Oct 21, 4:20 PM)
Average54 °F87%30.00 "Hg
* Reported Oct 15 4:20 PM — Oct 30 3:20 PM, Rheine, Weather by CustomWeather, © 2014

Note: Actual official high and low records may vary slightly from our data, if they occured in-between our weather recording intervals... More about our weather records

Advertising

Rheine weather history for previous 24 hours

 ConditionsComfort  
Time TempWeatherWind HumidityBarometerVisibility
3:20 PM
Oct 30
55 °FFog.3 mph94%30.21 "Hg2 mi
2:20 PM55 °FFog.6 mph88%30.21 "Hg3 mi
1:20 PM54 °FFog.6 mph94%30.21 "Hg3 mi
12:20 PM54 °FFog.5 mph94%30.21 "Hg3 mi
11:20 AM52 °FFog.5 mph100%30.21 "Hg3 mi
10:20 AM52 °FFog.3 mph94%30.21 "Hg3 mi
9:20 AM50 °FFog.5 mph100%30.21 "Hg2 mi
8:20 AM50 °FFog.3 mph100%30.21 "Hg2 mi
7:20 AM50 °FFog.2 mph100%30.18 "Hg2 mi
6:20 AM50 °FFog.2 mph100%30.18 "Hg2 mi
5:20 AM50 °FFog.2 mph100%30.18 "Hg2 mi
4:20 AM50 °FCool.1 mph100%30.18 "HgN/A
3:20 AM50 °FCool.1 mph100%30.15 "HgN/A
2:20 AM50 °FCool.1 mph100%30.15 "HgN/A
1:20 AM50 °FCool.No wind100%30.15 "HgN/A
12:20 AM50 °FCool.1 mph100%30.15 "HgN/A
11:20 PM
Oct 29
50 °FCool.2 mph100%30.15 "HgN/A
10:20 PM50 °FCool.1 mph100%30.12 "HgN/A
9:20 PM50 °FCool.No wind100%30.12 "HgN/A
8:20 PM50 °FCool.1 mph100%30.12 "HgN/A
7:20 PM50 °FCool.2 mph94%30.09 "HgN/A
6:20 PM50 °FCool.1 mph94%30.09 "HgN/A
5:20 PM50 °FCool.2 mph94%30.07 "HgN/A
4:20 PM50 °FCool.2 mph94%30.07 "HgN/A
Weather by CustomWeather, © 2014

See weather overviewHow to use our weather pages